Regional Weather Roundup
Issued by NWS

Home | Current Version | Previous Version | Graphics & Text | Print | Product List | Glossary On
Versions: 1 2 3 4 5 6 7 8 9 10 11 12 13 14 15 16 17 18 19 20 21 22 23 24 25 26 27 28 29 30 31 32 33 34 35 36 37 38 39 40 41 42 43 44 45 46 47 48 49 50
000
ASUS43 KMPX 281101
RWRMN
WEATHER ROUNDUP FOR MINNESOTA
NATIONAL WEATHER SERVICE TWIN CITIES/CHANHASSEN MN
600 AM CDT FRI AUG 28 2015


NOTE: "FAIR" INDICATES FEW OR NO CLOUDS BELOW 12,000 FEET WITH NO
SIGNIFICANT WEATHER AND/OR OBSTRUCTIONS TO VISIBILITY. N/A MEANS
CURRENT SKY AND/OR WEATHER CONDITIONS ARE NOT AVAILABLE.

MNZ060>063-068>070-281200-
   Twin Cities Metro

CITY           SKY/WX    TMP DP  RH WIND       PRES   REMARKS
TWIN CITIES    CLOUDY    64  60  87 SE6       30.00R
ST PAUL        CLOUDY    62  60  93 SE3       30.00S
CRYSTAL        MOCLDY    63  60  90 SE3       29.99R
BLAINE         PTCLDY    61  61 100 S3        30.00R
LAKEVILLE      CLOUDY    63  63 100 CALM      29.99F
EDEN PRAIRIE   MOCLDY    64  61  90 S7        29.99R
SOUTH ST PAUL  CLOUDY    63  60  91 CALM      30.00R
LAKE ELMO      FAIR      59  59 100 CALM      30.02R
$$
MNZ001>005-007-008-013>017-022>024-027-028-281200-
   Northwest Minnesota

CITY           SKY/WX    TMP DP  RH WIND       PRES   REMARKS
BEMIDJI        FOG       64  63  99 SW5       29.92F VSB 1/2
HALLOCK        MOCLDY    64  63  94 S8        29.82F
ROSEAU         MOCLDY    61  55  82 CALM      29.87F HAZE
WARROAD        CLOUDY    61  55  82 CALM      29.88S FOG
THIEF RVR FALL CLOUDY   N/A N/A N/A S7        29.89S
CROOKSTON      PTCLDY    63  63 100 S3        29.89S
FOSSTON        PTCLDY    63  63 100 S8        29.92S
DETROIT LAKES  CLOUDY    64  64 100 S6        29.94S FOG
MOORHEAD       MOCLDY    63  63 100 S5        29.92R FOG
PARK RAPIDS    FOG       64  62  93 S6        29.95F VSB 1/2
MAHNOMEN       FAIR      63  63  98 S8        29.91F
$$
MNZ006-009>011-018-025>026-281200-
   North Central Minnesota

CITY           SKY/WX    TMP DP  RH WIND       PRES   REMARKS
BAUDETTE       FOG       59  58  96 SE3       29.89S VSB 3/4
FLAG ISLAND    CLOUDY    64  63  94 S3        29.86S FOG
INTL FALLS     MOCLDY    61  60  97 CALM      29.92R
WASKISH        MOCLDY    63  63 100 CALM      29.91R
BIG FORK       FOG       63  61  94 S5        29.94S VSB 3/4
LONGVILLE      CLOUDY    64  63  94 S6        29.94F
GRAND RAPIDS     N/A     61  57  88 S3        29.96S
CRANE LAKE     CLOUDY    59  57  94 S3        29.95F
ORR            CLOUDY    59  57  94 CALM      29.92F
COOK           CLOUDY    61  61 100 CALM      29.95F FOG
WALKER         CLOUDY    63  63  98 SW6       29.94R FOG
$$
MNZ012-019>021-037-281200-
   Northeast Minnesota

CITY           SKY/WX    TMP DP  RH WIND       PRES   REMARKS
DULUTH         CLOUDY    61  58  90 SW5       29.97S
ELY            CLOUDY    61  57  88 SW3       29.96S
HIBBING        FOG       58  57  97 CALM      29.96F VSB 1
EVELETH        CLOUDY    59  59 100 S5        29.98S FOG
DULUTH HARBOR  CLOUDY    57  54  88 CALM      29.98S
TWO HARBORS    CLOUDY    63  57  82 CALM      29.96S
SILVER BAY     CLOUDY    59  55  88 CALM      29.96R
GRAND MARAIS     N/A     53  50  89 CALM      29.96F
G MARAIS ARPRT CLEAR     52  46  82 CALM      29.99F
$$
MNZ029>031-032-039>041-046>048-054>057-064-281200-
   West Central Minnesota

CITY           SKY/WX    TMP DP  RH WIND       PRES   REMARKS
FERGUS FALLS   PTCLDY    63  63 100 S7        29.94S FOG
WHEATON        CLOUDY    61  59  94 S5        29.97R FOG
MORRIS         CLOUDY    61  59  94 SE8       29.96R FOG
ALEXANDRIA     CLEAR     62  61  96 S6        29.98R
ELBOW LAKE     FAIR      60  60  99 SE6       29.96R
WADENA         FOG       63  63 100 S5        29.95F VSB 1/4
GLENWOOD       PTCLDY    61  59  94 S7        29.99R
APPLETON         N/A     64  61  88 SE3       29.95F
BENSON         CLOUDY    63  61  94 CALM      29.97S
ORTONVILLE     CLOUDY    63  61  94 CALM      29.95S
MADISON        FOG       61  59  94 CALM      29.95S VSB 1
WILLMAR        FAIR      59  59 100 CALM      29.98F
$$
MNZ033>034-036-042>043-049>051-058-059-281200-
   Central Minnesota

CITY           SKY/WX    TMP DP  RH WIND       PRES   REMARKS
ST CLOUD       CLEAR     56  56 100 S3        29.98S FOG
SAUK CENTRE    FAIR      58  58  98 CALM      29.98S
PAYNESVILLE    MOCLDY    60  59  97 CALM      29.99S
AITKIN         PTCLDY    61  55  82 S3        29.95S
PINE RIVER     CLOUDY    63  63 100 S5        29.98F FOG
BRAINERD       CLOUDY    60  59  96 S7        29.97S FOG
STAPLES        CLOUDY    61  61 100 S5        29.97R FOG
LONG PRAIRIE   FAIR      57  57 100 S3        29.98R
LITTLE FALLS   FOG       54  54 100 CALM      29.98S VSB 1
LITCHFIELD     CLOUDY    63  63 100 SE3       30.00S
BUFFALO        PTCLDY    60  58  91 CALM      30.00S
MAPLE LAKE     MOCLDY    60  60  98 CALM      30.00S
$$
MNZ037-044-045-052-053-281200-
   East Central Minnesota

CITY           SKY/WX    TMP DP  RH WIND       PRES   REMARKS
PRINCETON      PTCLDY    61  59  94 S5        29.98S
MORA           FOG       54  52  94 CALM      30.00S VSB 1
CAMBRIDGE      CLEAR     61  54  77 S5        29.97S
RUSH CITY      PTCLDY    58  57  95 S3        29.98F
MOOSE LAKE     PTCLDY    55  55 100 SW3       29.97R
HINCKLEY       FOG       52  52 100 CALM      29.99S VSB 1/2
CLOQUET        CLOUDY    61  57  88 CALM      29.97F
MCGREGOR       PTCLDY    61  59  94 S3        29.97S
$$
MNZ071>073-080-081-089-090-097-098-281200-
   Southwest Minnesota

CITY           SKY/WX    TMP DP  RH WIND       PRES   REMARKS
MONTEVIDEO     PTCLDY    59  59 100 SE3       29.98S FOG
GRANITE FALLS  MOCLDY    59  58  97 CALM      29.98S FOG
CANBY          FOG       60  58  96 CALM      29.96S VSB 1/4
MARSHALL       CLOUDY    64  59  82 SE3       29.97S
REDWOOD FALLS  CLOUDY    65  62  90 SE5       29.96S
OLIVIA         MOCLDY    57  55  94 E3        29.97S
PIPESTONE      CLOUDY    63  61  94 E6        29.94F
WINDOM         RAIN      63  61  94 SE8       29.97F
WORTHINGTON    CLOUDY    63  59  88 E10       29.95F
JACKSON        CLOUDY    63  63 100 SE12      29.98F
TRACY          CLOUDY    65  63  93 S7        29.96S
SLAYTON        CLOUDY    62  62 100 SE8       29.96F
$$
MNZ065>067-074>077-082>085-091>093-281200-
   South Central Minnesota

CITY           SKY/WX    TMP DP  RH WIND       PRES   REMARKS
MANKATO        CLOUDY    64  59  82 S10       30.00R
NEW ULM        LGT RAIN  64  63  94 S13       29.97S
ST JAMES       LGT RAIN  64  63  94 SE8       30.00R
FAIRMONT       CLOUDY    63  57  82 SE9       29.99F
GLENCOE        CLOUDY    63  62  99 CALM      29.98F
FARIBAULT      RAIN      64  63  94 S8        30.00S
OWATONNA       CLOUDY    64  61  88 S8        30.02S
WASECA         RAIN      63  59  88 MISG      30.03S
ALBERT LEA     DRIZZLE   63  63 100 S3        30.03F
$$
MNZ078>079-086>088-094>096-281200-
   Southeast Minnesota

CITY           SKY/WX    TMP DP  RH WIND       PRES   REMARKS
ROCHESTER      LGT RAIN  62  60  93 S15       30.04R
RED WING       CLOUDY    64  61  88 S5        30.01R
STANTON        CLOUDY    65  60  86 CALM      29.99F
DODGE CENTER   CLOUDY    63  61  94 SW13      30.02S
WINONA         CLOUDY    64  59  82 SE3       30.03S
AUSTIN         RAIN      63  61  94 S7        30.04S
PRESTON        LGT RAIN  60  58  92 S10       30.06S
$$
ABBREVIATIONS USED IN REMARKS
   TC - TEMPERATURES IN CELSIUS
  WCI - WIND CHILL INDEX
   HX - HEAT INDEX
  VSB - VISIBILITY
$$


USA.gov is the U.S. government's official web portal to all federal, state and local government web resources and services.